Weather in Luleburgaz

Turkey     41°24′07″N   27°21′18″E
temp.,
°C
wind,
m/s
gust,
m/s
humid.,
%
clouds,
%
prec.,
mm/h
press.,
hPa
HPBL,
m
18 january, mon
mon1800:00−3nne22640 0.0 102067
03:00−3nnw24660 0.0 1020383
06:00−4nnw25610 0.0 1021489
09:00−4nw23580 0.0 1022247
12:00−1nnw22400 0.0 1024753
15:00+1wnw22330 0.0 10221112
18:00−2w11420 0.0 102321
21:00−3sw11460 0.0 102321
19 january, tue
tue1900:00−3ssw01480 0.0 102521
03:00−3n11490 0.0 102521
06:00−3ene11480 0.0 102521
09:00−3ene004815 0.0 102521
12:000w1137100 0.0 1026459
15:00+1wnw223684 0.0 10251013
18:00−1wsw12490 0.0 102521
21:00−3w11550 0.0 102621
20 january, wed
wed2000:00−3sw12550 0.0 102721
03:00−3s11550 0.0 102721
06:00−3se12550 0.0 102621
09:00−2sse125617 0.0 102625
12:00+3ssw355556 0.0 1027527
15:00+7sw586447 0.0 1025980
18:00+3ssw34831 0.0 102537
21:000sse238710 0.0 102625
21 january, thu
thu2100:000sse229147 0.0 102522
03:000sse239423 0.0 102526
06:00+1se229256 0.0 102422
09:00+1sse239178 0.0 102543
12:00+7ssw4882100 0.0 1024564
15:00+10sw487597 0.1 10231044
18:00+7sw358638 0.1 102391
21:00+5sse239327 0.1 102346
22 january, fri
fri2200:00+6s359093 0.0 1023134
03:00+6sse378997 0.0 1023165
06:00+6sse3687100 0.0 1021173
09:00+6sse3690100 0.0 1021168
12:00+10ssw41082100 0.0 1020766
15:00+13sw61180100 0.1 1019961
18:00+11ssw4118694 0.1 1018375
21:00+8sse369575 0.2 1018133